Location: Poughquag
(41.6090°N, 73.6820°W)
Time: 15:12:36
(UTC-05:00)

Envisat - Visible Passes

Search period start: 19 November 2018 00:00
Search period end: 29 November 2018 00:00
Orbit: 764 x 766 km, 98.2° (Epoch: 19 November)

Date Brightness Start Highest point End Pass type
(mag) Time Alt. Az. Time Alt. Az. Time Alt. Az.
19 Nov 3.5 18:06:08 23° ESE 18:08:33 36° ENE 18:13:09 10° N visible
19 Nov 4.9 19:46:21 24° WSW 19:47:36 27° W 19:51:55 10° NW visible
20 Nov 6.3 06:14:46 10° ENE 06:16:29 12° E 06:18:12 10° ESE visible
20 Nov 4.3 17:29:07 11° E 17:32:11 17° ENE 17:35:27 10° NNE visible
20 Nov 3.4 19:09:20 44° SSW 19:10:41 60° W 19:15:44 10° NNW visible
21 Nov 2.9 18:32:18 40° SE 18:33:58 62° ENE 18:39:00 10° N visible
21 Nov 5.6 20:12:31 15° WSW 20:13:24 15° W 20:16:23 10° NW visible
22 Nov 3.8 17:55:15 21° ESE 17:57:27 29° ENE 18:01:46 10° N visible
22 Nov 4.5 19:35:29 32° WSW 19:36:20 34° W 19:40:58 10° NNW visible
23 Nov 4.6 17:18:33 10° E 17:21:07 14° ENE 17:23:42 10° NNE visible
23 Nov 3.0 18:58:25 55° S 18:59:29 77° WSW 19:04:36 10° NNW visible
24 Nov 3.1 18:21:20 37° ESE 18:22:49 49° ENE 18:27:43 10° N visible
24 Nov 5.3 20:01:32 19° W 20:02:06 20° W 20:05:46 10° NW visible
25 Nov 4.0 17:44:15 18° E 17:46:21 23° ENE 17:50:19 10° NNE visible
25 Nov 4.0 19:20:18 10° S 19:25:06 43° W 19:29:57 10° NNW visible
26 Nov 4.8 17:08:38 10° ENE 17:10:06 11° ENE 17:11:34 10° NE visible
26 Nov 2.8 18:43:13 10° SSE 18:48:18 85° ENE 18:53:25 10° NNW visible
26 Nov 6.0 20:27:32 11° W 20:27:57 11° W 20:29:07 10° WNW visible
27 Nov 3.4 18:10:12 31° ESE 18:11:42 39° ENE 18:16:24 10° N visible
27 Nov 5.0 19:50:25 24° WSW 19:50:49 25° W 19:54:57 10° NW visible
28 Nov 6.1 06:17:26 10° ENE 06:19:43 13° E 06:21:59 10° ESE visible
28 Nov 4.2 17:33:02 14° E 17:35:17 19° ENE 17:38:47 10° NNE visible
28 Nov 3.6 19:08:55 10° S 19:13:52 55° W 19:18:52 10° NNW visible
